Tracking 28126 objects as of 2-Oct-2023
HD Live streaming from Space Station
objects crossing your sky now

STARLINK-2007

Track STARLINK-2007 now!
10-day predictions
STARLINK-2007 is classified as:


NORAD ID: 47602
Int'l Code: 2021-009BG
Perigee: 552.8 km
Apogee: 555.9 km
Inclination: 53.1 °
Period: 95.6 minutes
Semi major axis: 6925 km
RCS: Unknown
Launch date: February 4, 2021
Source: United States (US)
Launch site: AIR FORCE EASTERN TEST RANGE (AFETR)
Your satellite tracking list
Your tracking list is empty




NASA's NSSDC Master Catalog

Two Line Element Set (TLE):
1 47602U 21009BG  23275.07355740 -.00001851  00000-0 -10535-3 0  9995
2 47602  53.0561  45.2595 0002280  91.6369 268.4881 15.06397672147440
Source of the keplerian elements: AFSPC